Location: Alston School (historical)
(35.5076°N, 89.8251°W)
Time: 22:50:23
(UTC+00:00)

Cosmos 2058 Rocket - Visible Passes

Search period start: 14 March 2026 00:00
Search period end: 24 March 2026 00:00
Orbit: 605 x 631 km, 82.5° (Epoch: 14 March)

Date Brightness Start Highest point End Pass type
(mag) Time Alt. Az. Time Alt. Az. Time Alt. Az.
14 Mar 6.4 00:41:02 10° NW 00:44:02 18° W 00:47:02 10° SW visible
14 Mar 6.0 11:30:55 10° SE 11:34:23 23° E 11:37:52 10° NE visible
17 Mar 6.6 10:46:02 10° ESE 10:47:51 12° E 10:49:41 10° ENE visible
18 Mar 5.7 11:01:06 10° SE 11:04:37 24° E 11:08:10 10° NE visible
19 Mar 4.4 11:17:15 10° SSE 11:21:28 46° E 11:25:44 10° NNE visible
20 Mar 3.1 11:33:59 10° S 11:38:25 88° WNW 11:42:53 10° N visible
21 Mar 6.3 10:16:08 10° ESE 10:18:06 13° E 10:20:03 10° ENE visible
22 Mar 5.5 10:31:17 10° SE 10:34:51 24° E 10:38:27 10° NE visible
23 Mar 4.2 10:47:27 10° SSE 10:51:42 47° E 10:55:59 10° NNE visible
